     2.10           OBSERVATION DATA    G (GPS)             RINEX VERSION / TYPE
teqc 2002Apr3 Duncan Agnew 20050511 23:58:25UTC             PGM / RUN BY / DATE
OSX 5.3|G3|cc|OSX 5.3+|G3+                                  COMMENT
BIT 2 OF LLI FLAGS DATA COLLECTED UNDER A/S CONDITION       COMMENT
86-60.9                                                     MARKER NAME
6893                                                        MARKER NUMBER
Alex Espinoza Nolte Engineering                             OBSERVER / AGENCY
220136893 TRIMBLE 4800 NP 1.20 / SP 1.43                    REC # / TYPE / VERS
N/A TRM4800                                                 ANT # / TYPE
 -2338895.0000 -4793750.0000  3485332.0000                  APPROX POSITION XYZ
        2.0000        0.0000        0.0000                  ANTENNA: DELTA H/E/N
     1     1                                                WAVELENGTH FACT L1/2
     7    C1    L1    L2    P1    P2    S1    S2            # / TYPES OF OBSERV
SNR is mapped to RINEX snr flag value [1-9]                 COMMENT
L1: 3 -> 1; 8 -> 5; 40 -> 9                                 COMMENT
L2: 1 -> 1; 5 -> 5; 60 -> 9                                 COMMENT
  2004     6    28    20    35    0.0000000     GPS         TIME OF FIRST OBS
                                                            END OF HEADER
 04  6 28 20 35  0.0000000  0  6G11G14G15G22G25G19
  22023353.0484    -127355.49659    -90196.83057                  22023350.3164
        51.7504         37.5004
  21775413.8044     121061.22359     85665.14658                  21775411.2564
        50.5004         39.5004
  23629384.7044     229918.27759    156626.66557                  23629384.6674
        41.2504         28.2504
  23066957.6314     117842.43059     84747.42957                  23066954.4094
        47.5004         34.2504
  20731990.3924    -108656.64859    -77176.76358                  20731987.2714
        54.7504         44.7504
  24355769.5994     120133.00059     83606.03456                  24355769.0474
        37.0004         20.0004
 04  6 28 20 35 10.0000000  0  5G11G14G15G22G25
  22019811.3204    -145967.22749   -104699.47747                  22019808.4674
        49.5004         37.0004
  21778681.2954     138231.98049     99044.95347                  21778678.8744
        50.5004         39.2504
  23635945.7774     264395.46549    183491.95747                  23635946.1794
        41.7504         27.5004
  23070142.1214     134576.33249     97786.81347                  23070138.8614
        47.7504         34.2504
  20728957.4274    -124595.46149    -89596.61948                  20728954.4874
        53.2504         44.5004
 04  6 28 20 35 20.0000000  0  5G11G14G15G22G25
  22016271.6114    -164569.43749   -119194.71647                  22016268.8414
        50.2504         36.0004
  21781943.0824     155371.50449    112400.41348                  21781940.2304
        51.0004         39.5004
  23642500.8994     298842.60249    210333.82747                  23642501.5164
        39.7504         28.2504
  23073321.6514     151286.80549    110807.94247                  23073318.6234
        48.0004         33.5004
  20725926.9224    -140521.49649   -102006.51748                  20725924.0604
        53.0004         44.5004
 04  6 28 20 35 30.0000000  0  5G11G14G15G22G25
  22012734.7864    -183154.97349   -133676.93947                  22012731.9234
        50.5004         37.2504
  21785199.9314     172486.89549    125737.07248                  21785197.5284
        50.2504         40.5004
  23649050.8764     333266.74649    237157.78547                  23649051.9764
        40.7504         28.0004
  23076498.3744     167981.02049    123816.41547                  23076495.4494
        48.0004         34.5004
  20722899.8614    -156427.60249   -114400.88148                  20722896.8304
        53.0004         45.0004
 04  6 28 20 35 40.0000000  0  5G11G14G15G22G25
  22009201.9024    -201718.22349   -148141.81347                  22009199.5854
        50.2504         36.7504
  21788453.2434     189583.43449    139059.03748                  21788450.5034
        50.5004         40.0004
  23655598.7654     367673.09849    263967.87947                  23655598.9534
        40.2504         28.0004
  23079672.9444     184664.23449    136816.29747                  23079670.3214
        47.2504         33.5004
  20719878.1054    -172308.47349   -126775.57348                  20719875.6574
        53.0004         44.7504
 04  6 28 20 35 50.0000000  0  5G11G14G15G22G25
  22005674.1994    -220259.69149   -162589.71347                  22005671.2644
        49.5004         36.5004
  21791702.8894     206660.61349    152365.91447                  21791699.8184
        51.2504         39.2504
  23662143.2304     402061.09449    290763.68747                  23662142.6774
        39.0004         28.7504
  23082845.7364     201335.95349    149807.21047                  23082842.7904
        47.2504         33.7504
  20716860.5814    -188164.54349   -139130.95748                  20716857.5104
        54.0004         44.5004
 04  6 28 20 36  0.0000000  0  5G11G14G15G22G25
  22002150.2754    -238776.63749   -177018.50147                  22002147.4154
        50.0004         36.5004
  21794949.2344     223721.05949    165659.75347                  21794946.6594
        51.5004         38.5004
  23668683.7654     436433.33249    317547.18247                  23668683.7734
        39.0004         28.7504
  23086016.7784     217998.94949    162791.33347                  23086013.3744
        47.5004         33.0004
  20713848.5584    -203993.03549   -151464.83648                  20713845.6814
        53.0004         44.2504
 04  6 28 20 36 10.0000000  0  5G11G14G15G22G25
  21998631.5454    -257267.34849   -191426.86347                  21998629.0444
        50.2504         36.5004
  21798192.8374     240766.36749    178941.78647                  21798190.0974
        51.0004         39.0004
  23675221.9794     470791.39149    344319.61347                  23675222.5514
        39.5004         28.7504
  23089186.4104     234654.90249    175769.96747                  23089183.1374
        47.5004         33.5004
  20710842.1074    -219792.25049   -163775.91748                  20710839.2574
        53.5004         44.5004
 04  6 28 20 36 20.0000000  0  5G11G14G15G22G25
  21995116.9944    -275735.18049   -205817.36647                  21995114.6384
        50.2504         37.0004
  21801432.8074     257793.05149    192209.34447                  21801429.8304
        51.0004         38.7504
  23681756.4884     505131.72349    371078.29147                  23681756.8324
        39.0004         29.0004
  23092353.8084     251300.39849    188740.48647                  23092350.5704
        47.2504         34.7504
  20707840.5724    -235565.61749   -176066.83948                  20707837.8164
        52.7504         44.7504
 04  6 28 20 36 30.0000000  0  5G11G14G15G22G25
  21991607.9124    -294177.55149   -220188.04547                  21991604.9114
        49.7504         37.0004
  21804669.9834     274803.62549    205464.32447                  21804666.7204
        51.0004         38.5004
  23688288.6954     539456.82849    397825.06547                  23688288.6824
        39.2504         27.7504
  23095519.9574     267938.03149    201704.86447                  23095516.7584
        47.5004         33.5004
  20704844.2854    -251310.44549   -188335.54248                  20704841.6724
        53.7504         44.7504
 04  6 28 20 36 40.0000000  0  5G11G14G15G22G25
  21988102.6604    -312596.29749   -234540.31447                  21988099.7324
        50.5004         38.0004
  21807903.5404     291796.11349    218705.21447                  21807900.3254
        50.2504         39.0004
  23694817.1674     573764.72349    424558.42547                  23694817.2264
        39.2504         28.0004
  23098684.1114     284565.80149    214661.54147                  23098680.6514
        48.0004         34.2504
  20701853.3954    -267028.69549   -200583.51648                  20701850.3804
        53.0004         45.5004
 04  6 28 20 36 50.0000000  0  5G11G14G15G22G25
  21984602.4854    -330989.78949   -248872.90747                  21984599.7454
        49.5004         36.5004
  21811133.9294     308772.12949    231933.27547                  21811131.4404
        51.5004         39.0004
  23701342.6064     608056.89849    451279.53647                  23701343.2654
        38.0004         27.5004
  23101847.1314     301185.34449    227611.81947                  23101843.0644
        48.2504         34.0004
  20698867.5284    -282718.76249   -212809.53848                  20698864.7614
        53.0004         45.2504
 04  6 28 20 37  0.0000000  0  5G11G14G15G22G25
  21981106.5614    -349361.80149   -263188.74847                  21981103.8204
        50.5004         37.0004
  21814360.4574     325727.73049    245145.42747                  21814357.4004
        50.7504         38.5004
  23707864.3824     642329.46949    477985.39347                  23707864.9364
        37.7504         26.7504
  23105007.0454     317792.88349    240552.75047                  23105003.2114
        48.2504         33.2504
  20695886.3444    -298384.40249   -225016.53848                  20695883.6734
        53.5004         44.5004
 04  6 28 20 37 10.0000000  0  5G11G14G15G22G25
  21977614.6254    -367711.82849   -277487.47047                  21977611.8934
        50.2504         37.0004
  21817583.6334     342663.34449    258341.99347                  21817580.1354
        50.7504         38.2504
  23714382.8044     676582.70349    504676.15047                  23714383.2474
        38.0004         28.0004
  23108165.3954     334388.85249    253484.64447                  23108161.2534
        48.7504         32.7504
  20692910.3044    -314025.16049   -237204.12948                  20692907.5684
        53.5004         44.5004
 04  6 28 20 37 20.0000000  0  5G11G14G15G22G25
  21974127.2174    -386039.34849   -291768.65647                  21974124.2874
        50.2504         36.5004
  21820802.7214     359579.38349    271523.32047                  21820799.3734
        49.7504         38.0004
  23720896.8974     710817.01249    531352.16447                  23720898.1164
        40.0004         26.7504
  23111321.4524     350973.78949    266407.97647                  23111317.3164
        48.0004         33.2504
  20689938.7844    -329640.48849   -249371.92848                  20689936.0454
        53.5004         44.0004
 04  6 28 20 37 30.0000000  0  5G11G14G15G22G25
  21970643.2814    -404346.65649   -306034.09847                  21970640.7504
        50.7504         36.5004
  21824017.2184     376473.50049    284687.55747                  21824014.2704
        49.2504         38.5004
  23727407.4944     745029.97749    558011.57047                  23727408.8834
        39.0004         26.7504
  23114474.5004     367545.31349    279320.83747                  23114470.9724
        46.2504         34.0004
  20686971.4074    -345232.73049   -261521.71048                  20686968.5684
        53.5004         44.5004
 04  6 28 20 37 40.0000000  0  5G11G14G15G22G25
  21967163.8544    -422633.25049   -320283.39047                  21967161.0314
        50.5004         37.0004
  21827227.9144     393346.10949    297835.03647                  21827224.7604
        48.0004         38.7504
  23733914.5154     779222.01649    584654.64947                  23733915.4144
        40.0004         27.7504
  23117626.0684     384103.88749    292223.60747                  23117622.4674
        45.0004         32.7504
  20684008.7774    -360801.34049   -273653.09548                  20684006.0024
        53.2504         44.7504
 04  6 28 20 37 50.0000000  0  5G11G14G15G22G25
  21963688.7944    -440892.53949   -334511.40047                  21963686.2494
        50.2504         37.0004
  21830436.0054     410203.62549    310970.75748                  21830432.7094
        47.5004         39.5004
  23740417.6294     813399.43449    611286.36347                  23740419.0664
        40.5004         26.5004
  23120775.7124     400655.94949    305121.31847                  23120771.9864
        43.7504         33.5004
  20681051.8004    -376339.86349   -285761.03548                  20681049.0964
        53.2504         45.2504
 04  6 28 20 38  0.0000000  0  5G11G14G15G22G25
  21960218.8154    -459126.63749   -348719.77447                  21960216.4934
        50.0004         37.0004
  21833640.6394     427043.78549    324092.95247                  21833637.4624
        47.2504         39.2504
  23746918.8794     847560.01649    637904.93747                  23746919.6804
        40.0004         28.2504
  23123923.4174     417199.44949    318012.32447                  23123920.6794
        42.7504         33.2504
  20678100.2774    -391850.44149   -297847.20148                  20678097.6404
        53.2504         44.5004
 04  6 28 20 38 10.0000000  0  5G11G14G15G22G25
  21956753.5474    -477338.54749   -362910.88747                  21956750.8194
        50.5004         37.0004
  21836841.3584     443863.56349    337199.25747                  21836838.4774
        48.5004         39.0004
  23753415.7394     881700.66049    664507.95647                  23753416.1654
        39.2504         27.5004
  23127069.6774     433731.30949    330894.27047                  23127066.2604
        43.5004         33.2504
  20675153.5194    -407335.96149   -309913.82648                  20675150.8224
        52.5004         44.2504
 04  6 28 20 38 20.0000000  0  5G11G14G15G22G25
  21953292.2764    -495528.59049   -377084.93647                  21953289.0164
        50.0004         37.0004
  21840037.8964     460662.61349    350289.41747                  21840034.9684
        49.0004         38.7504
  23759908.2464     915820.82849    691095.04147                  23759909.3034
        39.7504         26.5004
  23130213.4544     450251.24649    343766.93347                  23130210.3654
        45.0004         33.5004
  20672211.4634    -422796.82049   -321961.25448                  20672208.5914
        53.5004         44.5004
 04  6 28 20 38 30.0000000  0  5G11G14G15G22G25
  21949834.9314    -513693.78549   -391239.64347                  21949832.3394
        50.0004         36.5004
  21843231.5754     477443.76249    363365.62547                  21843228.6454
        50.0004         38.2504
  23766397.9134     949923.42249    717668.45546                  23766398.8334
        39.7504         25.5004
  23133355.9564     466762.16849    356632.54747                  23133352.0754
        46.2504         33.5004
  20669274.7084    -438230.08249   -333987.15548                  20669272.0854
        53.5004         44.2504
 04  6 28 20 38 40.0000000  0  5G11G14G15G22G25
  21946383.1004    -531834.53949   -405375.28647                  21946380.6564
        50.5004         37.2504
  21846421.3574     494206.41449    376427.42547                  21846418.3964
        50.5004         38.5004
  23772883.8224     984007.83649    744227.69247                  23772884.8864
        40.0004         26.0004
  23136495.6844     483263.48049    369490.71547                  23136492.2734
        48.2504         35.0004
  20666343.0304    -453636.23049   -345991.95248                  20666340.3544
        53.5004         45.0004
 04  6 28 20 38 50.0000000  0  5G11G14G15G22G25
  21942935.5494    -549952.48449   -419493.16547                  21942932.9944
        50.2504         37.0004
  21849607.3254     510948.90649    389473.51047                  21849604.3184
        50.5004         38.2504
  23779366.4434    1018072.35949    770771.39546                  23779367.2474
        41.0004         24.7504
  23139633.9894     499753.65249    382340.17947                  23139630.4484
        48.2504         35.0004
  20663416.2104    -469016.87949   -357976.85748                  20663413.5274
        53.7504         45.0004
 04  6 28 20 39  0.0000000  0  5G11G14G15G22G25
  21939492.1874    -568045.80949   -433591.86047                  21939489.5434
        50.2504         37.0004
  21852789.6544     527672.92249    402505.20547                  21852786.4714
        50.7504         38.5004
  23785844.6544    1052118.59849    797300.87447                  23785846.2944
        41.0004         26.2504
  23142769.8284     516234.44949    395182.34647                  23142766.6384
        48.2504         34.5004
  20660494.4564    -484370.21149   -369940.49248                  20660491.7424
        53.7504         45.2504
 04  6 28 20 39 10.0000000  0  5G11G14G15G22G25
  21936053.5474    -586118.22349   -447674.26347                  21936050.8054
        50.7504         38.0004
  21855967.7504     544374.77749    415519.62647                  21855964.7874
        50.7504         39.0004
  23792320.0284    1086142.85549    823813.23146                  23792320.5174
        42.0004         25.5004
  23145903.1654     532702.14149    408014.27647                  23145899.8524
        48.2504         34.7504
  20657577.3824    -499699.93049   -381885.72148                  20657574.0454
        53.2504         45.0004
 04  6 28 20 39 20.0000000  0  5G11G14G15G22G25
  21932618.7704    -604168.44949   -461739.37047                  21932615.8974
        50.2504         37.2504
  21859142.3724     561055.49649    428517.59447                  21859138.7374
        51.0004         38.2504
  23798790.3474    1120146.11749    850309.20246                  23798791.3094
        42.5004         25.2504
  23149034.7494     549157.92649    420836.95547                  23149032.0214
        47.5004         33.7504
  20654664.8064    -515004.84849   -393811.62648                  20654661.9604
        54.0004         45.0004
 04  6 28 20 39 30.0000000  0  5G11G14G15G22G25
  21929188.3844    -622194.01249   -475785.27447                  21929186.0994
        50.7504         37.2504
  21862312.5234     577717.48449    441500.93747                  21862309.5564
        51.0004         37.7504
  23805257.8384    1154130.67249    876790.62846                  23805259.2064
        42.2504         22.7504
  23152164.4064     565604.24249    433652.25047                  23152161.8134
        48.2504         33.7504
  20651757.6114    -530282.49249   -405716.28448                  20651755.0184
        53.5004         44.5004
 04  6 28 20 39 40.0000000  0  5G11G14G15G22G25
  21925761.7694    -640200.55149   -489816.33347                  21925759.7734
        50.5004         36.5004
  21865478.8804     594355.10549    454465.30047                  21865476.0204
        51.0004         37.5004
  23811720.8034    1188090.81349    903253.02346                  23811721.2534
        43.5004         25.2504
  23155290.9484     582035.39549    446455.73247                  23155288.1014
        47.5004         33.0004
  20648854.4444    -545538.50449   -417604.06948                  20648851.8184
        53.0004         44.2504
 04  6 28 20 39 50.0000000  0  5G11G14G15G22G25
  21922339.7484    -658182.67249   -503828.36447                  21922337.4414
        50.2504         37.2504
  21868641.0874     610973.41049    467414.61947                  21868638.0914
        51.0004         38.2504
  23818179.2324    1222031.66049    929700.38847                  23818179.7334
        44.0004         25.7504
  23158415.7754     598456.60949    459251.47247                  23158413.3644
        46.5004         33.5004
  20645956.2444    -560767.59849   -429470.89848                  20645953.4624
        53.0004         44.5004
 04  6 28 20 40  0.0000000  0  5G11G14G15G22G25
  21918922.1714    -676140.40249   -517821.41347                  21918920.1034
        50.5004         36.7504
  21871799.7334     627572.52049    480348.97447                  21871796.7824
        50.7504         38.5004
  23824634.6154    1255953.18449    956132.69246                  23824634.7494
        44.5004         25.5004
  23161538.9434     614867.94149    472039.50547                  23161535.7534
        46.7504         33.7504
  20643063.6764    -575969.77349   -441316.75048                  20643060.5404
        53.0004         44.5004
 04  6 28 20 40 10.0000000  0  5G11G14G15G22G25
  21915510.5674    -694071.64149   -531793.80747                  21915508.0884
        50.5004         37.0004
  21874955.8494     644154.36749    493269.88747                  21874952.3544
        50.5004         39.2504
  23831086.4054    1289857.35549    982551.42246                  23831086.4584
        44.0004         25.0004
  23164660.2694     631271.44549    484821.43947                  23164657.5554
        47.5004         32.5004
  20640176.3024    -591142.83249   -453139.90048                  20640173.3654
        53.2504         45.0004
 04  6 28 20 40 20.0000000  0  5G11G14G15G22G25
  21912102.6824    -711979.94149   -545748.33247                  21912100.0644
        50.5004         37.0004
  21878107.0894     660715.33649    506174.52247                  21878103.7194
        50.2504         39.2504
  23837533.8544    1323740.49249   1008953.83146                  23837534.6304
        44.5004         25.5004
  23167779.3034     647663.55149    497594.48147                  23167776.3534
        47.2504         33.5004
  20637293.6804    -606290.38349   -464943.19048                  20637290.6734
        53.5004         44.5004
 04  6 28 20 40 30.0000000  0  5G11G14G15G22G25
  21908698.9904    -729865.09049   -559684.80347                  21908696.3864
        50.0004         36.5004
  21881254.2894     677255.57449    519063.01747                  21881251.2584
        50.7504         38.7504
  23843977.6464    1357602.68849   1035339.90646                  23843978.4754
        45.0004         22.7504
  23170896.7584     664044.47749    510358.84147                  23170893.5534
        47.5004         32.2504
  20634416.1004    -621412.27349   -476726.47648                  20634413.4034
        53.0004         44.5004
 04  6 28 20 40 40.0000000  0  5G11G14G15G22G25
  21905300.9004    -747723.37149   -573600.33847                  21905298.0784
        50.7504         36.7504
  21884398.4674     693778.55949    531938.06747                  21884395.4934
        50.7504         38.5004
  23850417.5994    1391447.36349   1061712.35846                  23850418.3504
        44.5004         22.5004
  23174012.1994     680417.73449    523117.20647                  23174009.6114
        46.7504         32.5004
  20631544.1884    -636504.84049   -488486.91848                  20631541.6484
        53.2504         44.7504
 04  6 28 20 40 50.0000000  0  5G11G14G15G22G25
  21901907.6474    -765556.23449   -587496.07847                  21901904.5224
        50.5004         36.7504
  21887539.3834     710282.73449    544798.44847                  21887535.7774
        50.2504         38.0004
  23856854.6664    1425272.97749   1088069.91646                  23856854.8324
        44.2504         22.5004
  23177126.4954     696781.86349    535868.44747                  23177123.6404
        47.5004         32.0004
  20628677.5234    -651569.59849   -500225.68248                  20628674.3894
        53.7504         44.7504
 04  6 28 20 41  0.0000000  0  5G11G14G15G22G25
  21898518.0614    -783367.82449   -601375.24247                  21898514.9894
        50.2504         37.5004
  21890675.4454     726763.99649    557640.97247                  21890672.1904
        50.2504         38.5004
  23863287.0664    1459075.35549   1114409.38046                  23863287.2454
        44.5004         25.5004
  23180238.3874     713132.73849    548609.37547                  23180234.9524
        48.0004         33.2504
  20625815.2254    -666610.57049   -511945.91948                  20625812.2864
        53.7504         45.0004
 04  6 28 20 41 10.0000000  0  5G11G14G15G22G25
  21895133.7554    -801152.66449   -615233.55447                  21895130.8894
        51.0004         37.0004
  21893808.4234     743227.67649    570469.80847                  21893805.3514
        50.2504         38.2504
  23869716.7954    1492859.75849   1140734.85946                  23869716.5174
        44.2504         23.5004
  23183348.1474     729475.82849    561344.23947                  23183344.6554
        48.0004         31.7504
  20622958.3904    -681622.37549   -523643.42648                  20622955.9974
        53.0004         44.7504
 04  6 28 20 41 20.0000000  0  5G11G14G15G22G25
  21891754.2714    -818911.66849   -629071.74047                  21891751.4124
        51.0004         37.5004
  21896937.9814     759672.72349    583284.12547                  21896934.9164
        50.0004         37.7504
  23876141.5274    1526625.06649   1167045.43946                  23876141.7904
        43.0004         22.5004
  23186456.2734     745810.07449    574072.21747                  23186452.8954
        47.5004         32.7504
  20620107.2124    -696606.00449   -535318.97348                  20620104.5684
        53.7504         45.0004
 04  6 28 20 41 30.0000000  0  5G11G14G15G22G25
  21888379.2184    -836646.57449   -642891.15647                  21888376.5334
        50.0004         37.7504
  21900063.1664     776097.41449    596082.56547                  21900060.1454
        50.5004         38.5004
  23882563.0414    1560369.49649   1193339.76046                  23882563.0854
        42.7504         22.7504
  23189562.8904     762133.80949    586791.97247                  23189558.6744
        47.5004         33.5004
  20617261.1104    -711563.10549   -546973.85248                  20617258.2724
        52.7504         45.2504
 04  6 28 20 41 40.0000000  0  5G11G14G15G22G25
  21885008.8174    -854358.99249   -656693.04447                  21885006.1204
        50.2504         37.0004
  21903184.6054     792499.98849    608863.77947                  21903181.7334
        49.5004         37.5004
  23888979.6034    1594091.20349   1219616.34446                  23888980.5024
        42.5004         22.7504
  23192666.4994     778445.36749    599502.25847                  23192663.1414
        47.2504         32.7504
  20614419.6464    -726495.39849   -558609.40248                  20614416.5594
        53.5004         44.7504
 04  6 28 20 41 50.0000000  0  5G11G14G15G22G25
  21881642.7824    -872047.68449   -670476.43147                  21881639.8224
        50.7504         37.0004
  21906301.9944     808881.53549    621628.61347                  21906298.7594
        49.5004         38.0004
  23895392.7194    1627791.31649   1245876.11346                  23895393.4464
        42.7504         22.7504
  23195768.6834     794745.83249    612203.91147                  23195765.2954
        48.2504         32.7504
  20611582.9764    -741401.66449   -570224.66948                  20611579.9474
        53.2504         44.5004
 04  6 28 20 42  0.0000000  0  5G11G14G15G22G25
  21878281.3574    -889711.04349   -684240.09147                  21878278.8374
        50.5004         37.5004
  21909415.6344     825243.68049    634378.34047                  21909412.3434
        50.2504         38.0004
  23901801.5984    1661471.32049   1272120.19746                  23901802.7414
        42.2504         22.5004
  23198868.2854     811036.92649    624898.23647                  23198865.4604
        48.2504         33.2504
  20608751.6044    -756280.24649   -581818.35948                  20608748.8484
        53.7504         44.5004
 04  6 28 20 42 10.0000000  0  5G11G14G15G22G25
  21874926.1764    -907344.13349   -697980.18447                  21874923.1584
        50.5004         36.7504
  21912526.0554     841591.21549    647116.64447                  21912523.4354
        50.0004         37.2504
  23908208.8084    1695136.04749   1298352.40946                  23908209.4224
        42.7504         24.0004
  23201967.6334     827323.44949    637588.99247                  23201964.7114
        47.7504         31.2504
  20605926.5114    -771126.25049   -593386.69248                  20605923.7304
        53.0004         44.5004
 04  6 28 20 42 20.0000000  0  5G11G14G15G22G25
  21871575.0814    -924953.48849   -711701.74247                  21871572.5994
        51.0004         37.5004
  21915632.9714     857917.49649    659838.42647                  21915630.0234
        48.7504         38.2504
  23914610.6434    1728778.75449   1324567.43346                  23914611.6514
        42.0004         22.5004
  23205065.2824     843598.85949    650271.13347                  23205062.1994
        48.0004         33.2504
  20603106.1274    -785946.32449   -604934.78348                  20603103.0994
        53.7504         44.5004
 04  6 28 20 42 30.0000000  0  5G11G14G15G22G25
  21868228.4434    -942539.32049   -725404.98047                  21868225.7264
        50.5004         37.2504
  21918735.9814     874222.28149    672543.45547                  21918732.8864
        49.5004         38.0004
  23921008.2334    1762399.23849   1350765.19046                  23921009.7114
        42.2504         23.0004
  23208159.9014     859862.94149    662944.41947                  23208156.9614
        47.7504         33.5004
  20600290.9234    -800740.52749   -616462.74348                  20600288.0404
        53.5004         45.0004
 04  6 28 20 42 40.0000000  0  5G11G14G15G22G25
  21864886.4174    -960102.49249   -739090.57747                  21864883.8184
        50.7504         37.7504
  21921834.1944     890504.47749    685230.85747                  21921831.3514
        49.0004         38.5004
  23927401.2474    1795996.30549   1376944.62146                  23927402.6614
        41.5004         22.7504
  23211253.1364     876114.66049    675608.09847                  23211249.5104
        47.2504         33.0004
  20597480.4024    -815509.94149   -627971.35848                  20597477.5304
        53.7504         45.0004
 04  6 28 20 42 50.0000000  0  5G11G14G15G22G25
  21861549.9764    -977636.35949   -752753.32947                  21861546.8784
        50.5004         37.7504
  21924929.5794     906770.69949    697905.83247                  21924927.0964
        50.0004         37.7504
  23933791.4874    1829576.50849   1403110.95246                  23933792.8794
        41.7504         23.0004
  23214344.3104     892360.71949    688267.33447                  23214341.0754
        47.5004         33.5004
  20594676.1874    -830247.93049   -639455.52148                  20594672.9034
        54.5004         45.0004
 04  6 28 20 43  0.0000000  0  5G11G14G15G22G25
  21858218.4074    -995145.47749   -766396.80647                  21858215.4134
        51.0004         37.2504
  21928021.2224     923016.36749    710564.76647                  21928018.6184
        50.0004         38.0004
  23940176.9554    1863135.25849   1429260.53346                  23940178.8544
        40.7504         22.7504
  23217433.8024     908596.55149    700918.62347                  23217430.5794
        47.5004         32.2504
  20591876.6434    -844958.93749   -650918.62948                  20591873.5164
        53.5004         45.0004
 04  6 28 20 43 10.0000000  0  5G11G14G15G22G25
  21854891.8314   -1012625.46949   -780017.57847                  21854889.4184
        50.5004         37.0004
  21931109.7214     939245.69949    723210.97947                  21931107.0074
        49.2504         38.0004
  23946560.5624    1896676.73449   1455396.71546                  23946561.8124
        40.0004         22.5004
  23220522.1884     924826.43049    713565.25847                  23220518.4244
        47.0004         32.2504
  20589083.3204    -859638.64149   -662357.36048                  20589080.4754
        53.0004         44.5004
 04  6 28 20 43 20.0000000  0  5G11G14G15G22G25
  21851570.1074   -1030080.07849   -793618.57147                  21851567.3734
        51.0004         36.5004
  21934194.0914     955454.91849    735841.54147                  21934191.5364
        49.7504         37.2504
  23952939.0744    1930197.07049   1481516.37446                  23952940.6014
        39.5004         22.2504
  23223608.4934     941046.63749    726204.35247                  23223605.4384
        48.0004         31.0004
  20586294.8294    -874290.81249   -673774.62848                  20586291.8694
        53.7504         44.0004
 04  6 28 20 43 30.0000000  0  5G11G14G15G22G25
  21848253.8084   -1047507.79349   -807198.60247                  21848251.1914
        50.7504         37.2504
  21937275.2004     971645.42249    748457.50947                  21937272.5214
        48.7504         37.7504
  23959313.9204    1963697.69149   1507620.69146                  23959315.5654
        39.5004         22.0004
  23226693.9624     957258.68049    738837.09147                  23226690.3454
        47.0004         32.0004
  20583512.2864    -888913.85249   -685169.20048                  20583509.0444
        53.5004         45.0004
 04  6 28 20 43 40.0000000  0  5G11G14G15G22G25
  21844942.0444   -1064910.71149   -820759.32347                  21844939.3994
        50.7504         37.0004
  21940352.1644     987814.98049    761057.15347                  21940349.6134
        48.5004         37.5004
  23965685.2234    1997176.28949   1533707.75946                  23965686.8154
        39.5004         22.5004
  23229776.9154     973460.31349    751461.73447                  23229774.0674
        46.2504         32.5004
  20580734.8044    -903510.13349   -696542.92248                  20580731.7134
        53.0004         44.7504
 04  6 28 20 43 50.0000000  0  5G11G14G15G22G25
  21841635.3994   -1082287.05949   -834299.33347                  21841632.8604
        50.5004         37.0004
  21943425.2314    1003965.24649    773641.77047                  21943422.4284
        48.0004         38.2504
  23972051.4674    2030634.43449   1559778.99646                  23972053.5424
        39.5004         22.5004
  23232857.9974     989653.25049    764079.58147                  23232855.2994
        46.0004         33.5004
  20577962.5844    -918077.90249   -707894.42348                  20577959.4464
        52.7504         45.2504
 04  6 28 20 44  0.0000000  0  5G11G14G15G22G25
  21838333.8184   -1099635.24249   -847817.39647                  21838331.4944
        50.5004         37.5004
  21946495.1304    1020097.79349    786212.57747                  21946491.9384
        47.5004         37.5004
  23978415.1634    2064073.62949   1585835.41746                  23978417.2534
        39.0004         22.5004
  23235938.3564    1005839.05149    776691.86647                  23235935.4744
        45.7504         32.2504
  20575196.0464    -932615.53149   -719222.45948                  20575193.1924
        53.5004         45.0004
 04  6 28 20 44 10.0000000  0  5G11G14G15G22G25
  21835038.3444   -1116955.46149   -861313.68247                  21835035.4844
        50.5004         37.5004
  21949561.7694    1036212.32049    798769.33247                  21949558.8034
        46.5004         37.2504
  23984774.9984    2097493.47149   1611876.84246                  23984776.5254
        38.2504         22.5004
  23239017.3594    1022017.50049    789298.42247                  23239014.7334
        45.5004         32.7504
  20572435.1754    -947123.23449   -730527.15148                  20572432.3764
        51.7504         44.5004
 04  6 28 20 44 20.0000000  0  5G11G14G15G22G25
  21831746.9824   -1134251.67649   -874791.25747                  21831744.2784
        51.0004         37.2504
  21952623.7274    1052304.77349    811308.89047                  21952621.2504
        47.2504         37.2504
  23991129.6664    2130890.01249   1637899.97146                  23991131.7714
        39.2504         22.5004
  23242094.1494    1038184.55549    801896.10347                  23242091.6014
        46.0004         33.5004
  20569679.5604    -961604.97749   -741811.63248                  20569676.7804
        52.7504         45.0004
 04  6 28 20 44 30.0000000  0  5G11G14G15G22G25
  21828461.7144   -1151516.80949   -888244.60047                  21828458.6444
        50.5004         37.2504
  21955683.1474    1068382.19549    823836.74147                  21955680.5794
        48.2504         37.0004
  23997482.2694    2164270.07849   1663910.33146                  23997483.6244
        39.5004         24.0004
  23245169.6044    1054347.33249    814490.46647                  23245166.3434
        46.0004         33.5004
  20566929.9604    -976053.59849   -753070.30148                  20566927.4484
        52.7504         44.0004
 04  6 28 20 44 40.0000000  0  5G11G14G15G22G25
  21825181.0854   -1168755.07449   -901677.00947                  21825178.3894
        50.5004         37.5004
  21958738.7854    1084440.25849    836349.50647                  21958736.2074
        47.2504         38.2504
  24003830.2064    2197629.34049   1689904.50447                  24003831.9004
        39.7504         26.2504
  23248243.6794    1070501.56649    827078.16047                  23248240.4444
        45.7504         34.5004
  20564185.9834    -990473.40249   -764306.49048                  20564183.3994
        52.5004         44.7504
 04  6 28 20 44 50.0000000  0  5G11G14G15G22G25
  21821905.9404   -1185968.63749   -915090.17947                  21821902.8724
        50.2504         37.0004
  21961791.1194    1100476.66049    848845.39047                  21961787.8364
        46.2504         37.5004
  24010174.4904    2230965.51249   1715880.68447                  24010175.5994
        39.7504         26.5004
  23251315.3774    1086645.07049    839657.50347                  23251313.0074
        45.7504         34.0004
  20561447.2744   -1004866.62149   -775521.99648                  20561444.3514
        53.0004         44.7504
 04  6 28 20 45  0.0000000  0  5G11G14G15G22G25
  21818634.9724   -1203154.62549   -928481.86047                  21818632.0284
        50.0004         37.5004
  21964838.7634    1116494.22749    861326.59647                  21964835.7744
        45.5004         38.2504
  24016514.5254    2264281.44149   1741841.09047                  24016515.6924
        39.2504         26.7504
  23254386.1644    1102780.64849    852230.64147                  23254383.6494
        45.7504         33.5004
  20558713.9454   -1019230.41049   -786714.54748                  20558710.5774
        52.5004         45.2504
 04  6 28 20 45 10.0000000  0  5G11G14G15G22G25
  21815369.7694   -1220313.51649   -941852.42747                  21815367.3644
        50.0004         37.2504
  21967883.3424    1132492.43849    873792.72447                  21967880.4734
        47.5004         38.2504
  24022849.4234    2297576.48849   1767785.15847                  24022851.5844
        41.0004         26.5004
  23257455.0274    1118907.96949    864797.37647                  23257452.4544
        44.5004         33.2504
  20555986.1004   -1033565.14849   -797884.47648                  20555983.4024
        52.7504         45.0004
 04  6 28 20 45 20.0000000  0  5G11G14G15G22G25
  21812110.0654   -1237444.13749   -955200.95847                  21812107.6134
        50.2504         37.5004
  21970924.0384    1148472.40249    886244.62547                  21970921.6504
        47.5004         38.5004
  24029182.5584    2330851.67649   1793713.79847                  24029184.1844
        41.0004         28.2504
  23260522.3204    1135028.02049    877358.43047                  23260519.9824
        45.7504         32.5004
  20553264.0314   -1047869.71549   -809030.90348                  20553261.2624
        53.0004         45.0004
 04  6 28 20 45 30.0000000  0  5G11G14G15G22G25
  21808855.9964   -1254544.90249   -968526.23447                  21808853.1744
        50.2504         37.7504
  21973961.9184    1164435.52749    898683.41347                  21973958.8964
        47.5004         38.0004
  24035510.7104    2364108.35549   1819628.02047                  24035512.3174
        40.5004         27.0004
  23263588.2494    1151142.34849    889915.01647                  23263585.3784
        42.5004         32.0004
  20550548.1764   -1062142.57849   -820152.58348                  20550545.0744
        52.2504         44.7504
 04  6 28 20 45 40.0000000  0  5G11G14G15G22G25
  21805606.6424   -1271620.35949   -981831.78847                  21805603.9754
        50.7504         37.5004
  21976995.2314    1180377.12549    911105.44047                  21976992.3154
        47.7504         38.0004
  24041834.7694    2397341.85549   1845524.18447                  24041836.6894
        40.5004         27.7504
  23266653.1854    1167246.28949    902463.51147                  23266650.0374
        43.5004         31.0004
  20547836.8374   -1076388.34449   -831253.19248                  20547834.3224
        52.2504         44.5004
 04  6 28 20 45 50.0000000  0  5G11G14G15G22G25
  21802362.9884   -1288665.92649   -995114.04547                  21802360.0664
        50.2504         37.5004
  21980025.5914    1196301.80949    923514.27247                  21980022.7004
        48.2504         38.2504
  24048155.5794    2430556.66849   1871405.76947                  24048157.4454
        41.7504         26.7504
  23269716.7384    1183344.52049    915007.57547                  23269713.4834
        43.5004         31.0004
  20545132.1444   -1090602.39849   -842329.06848                  20545129.4014
        53.0004         45.0004
 04  6 28 20 46  0.0000000  0  5G11G14G15G22G25
  21799123.9294   -1305687.17649  -1008377.36047                  21799121.2694
        50.0004         38.0004
  21983052.0594    1212203.90249    935905.49447                  21983049.2744
        47.7504         38.2504
  24054471.4794    2463747.05549   1897268.32547                  24054473.1624
        42.0004         27.5004
  23272778.0964    1199431.35249    927542.75447                  23272774.8584
        41.5004         30.5004
  20542432.1364   -1104790.36349   -853384.63848                  20542429.4534
        53.0004         45.2504
 04  6 28 20 46 10.0000000  0  5G11G14G15G22G25
  21795890.6344   -1322679.21549  -1021617.91247                  21795888.0874
        50.2504         37.7504
  21986074.6904    1228088.09049    948282.77147                  21986072.2794
        48.5004         38.2504
  24060784.0234    2496917.73849   1923115.55247                  24060785.1874
        41.7504         26.5004
  23275837.4764    1215511.56649    940072.77447                  23275834.4964
        43.0004         31.2504
  20539738.3214   -1118947.39849   -864416.08648                  20539735.6294
        53.0004         45.5004
 04  6 28 20 46 20.0000000  0  5G11G14G15G22G25
  21792661.5074   -1339645.66449  -1034838.51747                  21792659.2044
        50.2504         38.0004
  21989092.9314    1243950.80549    960643.31347                  21989090.4504
        48.0004         38.2504
  24067091.2874    2530065.05949   1948944.53847                  24067093.1404
        42.5004         28.0004
  23278895.6364    1231581.64849    952594.88947                  23278892.8044
        43.0004         31.2504
  20537049.5524   -1133077.14149   -875426.26748                  20537046.7454
        52.7504         45.2504
 04  6 28 20 46 30.0000000  0  5G11G14G15G22G25
  21789439.1914   -1356581.34449  -1048035.16047                  21789436.2794
        50.0004         37.5004
  21992108.4964    1259797.12949    972991.08947                  21992106.1874
        48.5004         37.2504
  24073396.0914    2563194.02749   1974759.23547                  24073397.5974
        41.7504         27.5004
  23281953.5014    1247646.64549    965113.04647                  23281950.3194
        41.5004         31.5004
  20534366.9304   -1147174.47749   -886411.20848                  20534364.2824
        53.0004         45.0004
 04  6 28 20 46 40.0000000  0  6G11G14G15G22G25G20
  21786221.5734   -1373489.63349  -1061210.45747                  21786218.6754
        50.0004         37.2504
  21995120.1534    1275623.66849    985323.44547                  21995117.7374
        48.0004         37.7504
  24079695.6684    2596301.19549   2000556.96147                  24079697.7514
        41.7504         27.5004
  23285008.9414    1263703.28149    977624.68447                  23285005.0834
        42.0004         31.7504
  20531689.9244   -1161242.71149   -897373.45848                  20531686.6634
        53.2504         45.0004
  24322943.7424     -23415.75859
        40.7504
 04  6 28 20 46 50.0000000  0  6G11G14G15G22G25G20
  21783009.9474   -1390366.07449  -1074360.93047                  21783007.4934
        50.2504         37.2504
  21998129.0134    1291434.78149    997643.78647                  21998126.4584
        48.2504         37.7504
  24085992.7914    2629390.96149   2026341.08546                  24085994.6184
        42.2504         25.5004
  23288063.7384    1279755.98049    990133.27047                  23288060.4544
        42.2504         31.0004
  20529019.3064   -1175277.37549   -908309.56848                  20529016.3644
        52.7504         45.0004
  24316150.7764     -59114.75049    -33931.16756                  24316149.4564
        43.0004         20.5004
 04  6 28 20 47  0.0000000  0  6G11G14G15G22G25G20
  21779804.0874   -1407214.65649  -1087489.70947                  21779800.9434
        50.5004         37.2504
  22001134.1664    1307226.34049   1009948.87047                  22001131.6804
        48.0004         38.0004
  24092285.4764    2662459.05149   2052108.38047                  24092287.5114
        41.5004         26.2504
  23291116.5664    1295800.60249   1002635.55847                  23291113.7074
        45.0004         32.2504
  20526353.9734   -1189282.53149   -919222.67048                  20526351.3574
        52.5004         45.0004
  24309351.5084     -94847.23849    -61774.65046                  24309349.6824
        42.5004         22.0004
 04  6 28 20 47 10.0000000  0  6G11G14G15G22G25G20
  21776603.3994   -1424033.66849  -1100595.41847                  21776600.5984
        50.7504         37.7504
  22004135.5764    1322999.89549   1022239.95547                  22004133.4574
        47.2504         37.5004
  24098574.4554    2695507.09849   2077860.00547                  24098575.9404
        42.0004         26.5004
  23294168.4054    1311838.79749   1015132.83747                  23294165.8304
        44.2504         32.2504
  20523694.9544   -1203256.54749   -930111.51448                  20523691.7904
        52.7504         45.2504
  24302545.2444    -130611.57849    -89642.96246                  24302544.1574
        42.7504         21.7504
 04  6 28 20 47 20.0000000  0  6G11G14G15G22G25G20
  21773408.1984   -1440826.13749  -1113680.47447                  21773404.9014
        50.7504         37.5004
  22007133.1464    1338752.33249   1034514.54847                  22007131.0714
        45.0004         38.0004
  24104858.9264    2728531.84449   2103593.51847                  24104860.6214
        41.7504         25.7504
  23297218.8964    1327867.52349   1027622.70647                  23297215.4794
        43.7504         32.5004
  20521041.1054   -1217202.51249   -940978.49648                  20521038.3004
        52.5004         45.0004
  24295732.5164    -166410.85249   -117538.49746                  24295731.9844
        42.2504         22.2504
 04  6 28 20 47 30.0000000  0  6G11G14G15G22G25G20
  21770218.5064   -1457586.31249  -1126740.35147                  21770215.3364
        50.0004         37.5004
  22010127.8074    1354489.41449   1046777.20747                  22010125.3024
        45.7504         38.0004
  24111139.6664    2761538.94949   2129313.24746                  24111141.2824
        41.2504         24.0004
  23300268.7024    1343892.49649   1040109.66747                  23300265.3504
        43.0004         33.5004
  20518393.7004   -1231114.60949   -951819.09248                  20518390.8394
        52.0004         45.5004
  24288915.2424    -202239.23049   -145456.63846                  24288913.1084
        41.2504         23.0004
 04  6 28 20 47 40.0000000  0  6G11G14G15G22G25G20
  21767034.6154   -1474317.06649  -1139777.30347                  21767031.7414
        50.0004         37.2504
  22013118.7704    1370208.17649   1059025.58947                  22013116.3834
        45.7504         38.0004
  24117417.0804    2794525.45749   2155016.94046                  24117418.6454
        42.5004         25.5004
  23303316.4854    1359910.85549   1052591.49147                  23303313.7894
        42.2504         32.0004
  20515752.1534   -1244995.75449   -962635.56048                  20515748.7494
        51.5004         45.2504
  24282090.5754    -238099.59449   -173399.74546                  24282089.5784
        43.5004         23.2504
 04  6 28 20 47 50.0000000  0  6G11G14G15G22G25G20
  21763856.1614   -1491019.98849  -1152792.56647                  21763853.5954
        50.0004         37.5004
  22016106.5564    1385906.98449   1071258.41647                  22016104.2294
        45.5004         37.7504
  24123689.9264    2827489.66449   2180703.24746                  24123691.3474
        41.5004         22.0004
  23306362.9454    1375921.04749   1065066.95147                  23306360.6364
        41.7504         32.5004
  20513116.0494   -1258847.51649   -973429.14648                  20513113.4184
        52.0004         45.0004
  24275260.6454    -273993.48449   -201368.97846                  24275259.1264
        41.7504         23.5004
 04  6 28 20 48  0.0000000  0  6G11G14G15G22G25G20
  21760683.1214   -1507694.85549  -1165785.96647                  21760680.1024
        50.7504         37.7504
  22019090.1124    1401585.96149   1083475.77847                  22019088.0024
        45.0004         37.7504
  24129959.4424    2860431.64149   2206372.29946                  24129960.3414
        40.5004         22.0004
  23309408.4534    1391923.16049   1077536.11547                  23309405.5584
        41.7504         32.2504
  20510485.8334   -1272669.76649   -984199.72348                  20510482.9644
        52.7504         45.0004
  24268424.1424    -309920.66049   -229364.22446                  24268422.8744
        42.0004         24.0004
 04  6 28 20 48 10.0000000  0  6G11G14G15G22G25G20
  21757515.1804   -1524342.23849  -1178757.96747                  21757512.7054
        50.0004         36.7504
  22022070.2234    1417244.34449   1095677.09747                  22022067.3434
        45.5004         38.2504
  24136223.3104    2893350.64849   2232023.35246                  24136224.7044
        40.7504         21.7504
  23312451.7454    1407916.58249   1089998.49347                  23312448.3564
        42.2504         31.7504
  20507860.9284   -1286463.04349   -994947.73948                  20507858.4004
        52.0004         44.5004
  24261581.0134    -345881.83249   -257385.90046                  24261579.1444
        42.7504         24.5004
 04  6 28 20 48 20.0000000  0  6G11G14G15G22G25G20
  21754353.7634   -1540956.63749  -1191704.24147                  21754350.7804
        50.0004         37.7504
  22025046.4184    1432887.55549   1107866.60447                  22025044.1274
        45.5004         38.2504
  24142484.0434    2926252.01249   2257660.72346                  24142485.5884
        40.5004         21.0004
  23315494.9954    1423906.73849   1102458.34047                  23315491.4734
        43.0004         32.5004
  20505242.9634   -1300221.95749  -1005668.94948                  20505240.0864
        52.2504         45.0004
  24254731.7174    -381871.46949   -285429.77847                  24254730.3144
        42.5004         25.7504
 04  6 28 20 48 30.0000000  0  6G11G14G15G22G25G20
  21751197.5344   -1557542.46149  -1204628.27847                  21751194.2654
        50.0004         37.5004
  22028019.5724    1448511.24649   1120040.88547                  22028016.9424
        46.0004         38.2504
  24148740.8134    2959131.28549   2283280.85846                  24148741.7794
        41.0004         21.0004
  23318536.4474    1439889.22749   1114912.20247                  23318532.8334
        44.0004         32.5004
  20502630.5304   -1313950.82849  -1016366.76848                  20502627.3924
        51.2504         45.2504
  24247877.3264    -417893.89849   -313499.16746                  24247875.9854
        43.0004         25.0004
 04  6 28 20 48 40.0000000  0  6G11G14G15G22G25G20
  21748046.9344   -1574097.64849  -1217528.41747                  21748043.9904
        50.2504         37.5004
  22030989.6494    1464117.39549   1132201.52247                  22030986.7984
        48.2504         38.0004
  24154994.6444    2991990.46949   2308885.29346                  24154995.2424
        39.5004         21.5004
  23321576.3894    1455866.18449   1127361.77947                  23321573.0404
        44.0004         32.2504
  20500024.0424   -1327647.64849  -1027039.62048                  20500021.2934
        52.7504         45.5004
  24241015.8584    -453947.03549   -341592.52946                  24241015.1964
        42.0004         24.7504
 04  6 28 20 48 50.0000000  0  6G11G14G15G22G25G20
  21744901.8664   -1590624.10249  -1230406.17347                  21744899.1464
        51.0004         37.5004
  22033955.6354    1479704.03549   1144346.94047                  22033952.7094
        48.5004         38.5004
  24161243.2104    3024827.43449   2334472.46746                  24161244.1794
        40.0004         21.0004
  23324615.2494    1471835.57449   1139805.45347                  23324611.9404
        45.7504         31.7504
  20497423.1834   -1341314.36349  -1037688.99748                  20497420.0974
        53.5004         45.2504
  24234149.7014    -490032.81249   -369711.27646                  24234148.3994
        42.2504         25.5004
